Home   Weather   Burlington   Past weeks

Flag for Canada Past Weather in Burlington, Ontario, Canada — Yesterday and Last 2 Weeks

Now
55 °F

Cool.


Feels Like: 54 °F
Forecast: 49 / 57 °F
Wind: 5 mph from Southwest

Location: Burlington Piers

Current Time: May 28, 2017 at 2:39:07 am

Latest Report: May 28, 2017 at 2:00 am


Visibility: N/A

Pressure: 29.89 "Hg

Humidity: 94%

Dew Point: 53 °F

Location of BurlingtonLocation

Past Weather in Burlington — Graph

°F

Burlington Temperature Yesterday

Maximum temperature yesterday: 61 °F (at 11:00 am)
Minimum temperature yesterday: 53 °F (at 8:00 pm)
Average temperature yesterday: 57 °F

High & Low Weather Summary for the Past Weeks

 TemperatureHumidityPressure
High83 °F (May 18, 5:00 pm)100% (May 21, 6:00 pm)30.37 "Hg (May 21, 6:00 pm)
Low45 °F (May 20, 11:00 am)35% (May 18, 3:00 pm)29.49 "Hg (May 25, 4:00 pm)
Average56 °F73%29.87 "Hg
* Reported May 13 1:00 am — May 28 1:00 am, Burlington. Weather by CustomWeather, © 2017

Note: Actual official high and low records may vary slightly from our data, if they occured in-between our weather recording intervals... More about our weather records

Advertising

Burlington Weather History for the Previous 24 Hours

Scroll right to see more
 ConditionsComfort  
Time TempWeatherWind HumidityBarometerVisibility
1:00 am
Sun, May 28
53 °FCool.3 mph94%29.88 "HgN/A
12:00 am54 °FCool.1 mph91%29.91 "HgN/A
11:00 pm
Sat, May 27
54 °FCool.1 mph94%29.93 "HgN/A
10:00 pm53 °FCool.7 mph95%29.90 "HgN/A
9:00 pm53 °FCool.8 mph94%29.90 "HgN/A
8:00 pm53 °FCool.5 mph94%29.90 "HgN/A
7:00 pm53 °FCool.6 mph94%29.91 "HgN/A
6:00 pm54 °FCool.7 mph92%29.90 "HgN/A
5:00 pm54 °FCool.8 mph92%29.89 "HgN/A
4:00 pm56 °FCool.3 mph87%29.89 "HgN/A
3:00 pm58 °FCool.9 mph82%29.89 "HgN/A
2:00 pm60 °FCool.8 mph76%29.90 "HgN/A
1:00 pm59 °FCool.7 mph80%29.91 "HgN/A
12:00 pm60 °FCool.7 mph77%29.91 "HgN/A
11:00 am61 °FCool.3 mph79%29.90 "HgN/A
10:00 am58 °FCool.3 mph85%29.90 "HgN/A
9:00 am57 °FCool.5 mph88%29.90 "HgN/A
8:00 am57 °FCool.5 mph88%29.89 "HgN/A
7:00 am56 °FCool.5 mph89%29.89 "HgN/A
6:00 am56 °FCool.5 mph90%29.88 "HgN/A
5:00 am56 °FCool.5 mph90%29.87 "HgN/A
4:00 am56 °FCool.6 mph89%29.87 "HgN/A
3:00 am56 °FCool.6 mph89%29.87 "HgN/A
2:00 am58 °FCool.6 mph86%29.87 "HgN/A
Weather by CustomWeather, © 2017

See weather overviewHow to use our weather pages